sat.trackr.live / text

‹ back to catalog

STARLINK-34749

NORAD 65675 · 2025-211Z

PAYLOAD ACTIVE UNKNOWN

§ Identity

Operator
Country
US
Launch date
2025-09-19
Launch site
AFWTR
Launch vehicle
Mass (kg)
RCS (m²)

Purposes: comms

External: N2YO · Heavens-Above · Gunter

§ Orbital elements

Epoch: 2026-09-20T08:39:29.124864Z

Period
93.91 min
Inclination
97.2840°
Eccentricity
0.0001324
Mean motion
15.33440452 rev/d
Perigee alt
464.7 km
Apogee alt
466.5 km
Semi-major
6,843.7 km
B*
4.4730e-4
RAAN
303.6204°
Arg perigee
100.6054°
Mean anomaly
259.5338°
Rev number
5,650

§ Raw data

STARLINK-347491 65675U 25211Z   26263.36075376  .00014391  00000+0  44730-3 0  99942 65675  97.2840 303.6204 0001324 100.6054 259.5338 15.33440452 56507

JSON: /api/v1/satellites/65675 · /tle

For live sub-satellite position, see the globe view (requires WebGL).

§ Visibility from observer

Set your observer location to see the next 7 days of passes ≥ 10°. The values pass through the URL so the page stays shareable.

No JS? Fill the form by hand. The geolocation button needs JavaScript.